Hourly Data Report for June 23, 2017

TORONTO CITY
ONTARIO

43°40'00.000" N
79°24'00.000" W
112.50 m
6158355
71508
XTO

Download Data

Hourly Data (June 2017)
Hourly Data Report for June 23, 2017
TIME
LST
Temp Definition
°C
Dew Point Definition
°C
Rel Hum Definition
%
Precip. Amount Definition
mm

Wind Dir Definition
10's deg

Wind Spd Definition
km/h
Visibility Definition
km
Stn Press Definition
kPa
Hmdx Definition


Wind Chill Definition


Weather Definition


00:00 19.6 18.0 91 0.0 LegendMM LegendMM   99.38     LegendNANA
01:00 20.4 18.8 91 4.9 LegendMM LegendMM   99.35 27   LegendNANA
02:00 20.4 19.1 92 7.2 LegendMM LegendMM   99.23 27   LegendNANA
03:00 20.0 18.6 92 13.7 LegendMM LegendMM   99.28 26   LegendNANA
04:00 20.0 18.7 92 3.6 LegendMM LegendMM   99.18 27   LegendNANA
05:00 20.1 18.8 93 0.0 LegendMM LegendMM   99.11 27   LegendNANA
06:00 20.3 19.0 93 0.0 LegendMM LegendMM   99.08 27   LegendNANA
07:00 20.3 18.8 91 0.4 LegendMM LegendMM   99.04 27   LegendNANA
08:00 19.9 18.6 92 5.9 LegendMM LegendMM   98.94     LegendNANA
09:00 19.6 18.1 91 0.3 LegendMM LegendMM   98.96     LegendNANA
10:00 19.2 17.4 89 0.2 LegendMM LegendMM   98.91     LegendNANA
11:00 19.0 17.4 91 1.4 LegendMM LegendMM   98.83     LegendNANA
12:00 19.7 18.2 91 0.3 LegendMM LegendMM   98.83     LegendNANA
13:00 21.2 18.4 84 0.0 LegendMM LegendMM   98.61 28   LegendNANA
14:00 21.3 17.2 78 0.0 LegendMM LegendMM   98.69 27   LegendNANA
15:00 23.1 17.2 69 0.0 LegendMM LegendMM   98.66 29   LegendNANA
16:00 24.9 18.3 67 0.0 LegendMM LegendMM   98.61 31   LegendNANA
17:00 24.4 18.5 70 0.0 LegendMM LegendMM   98.58 31   LegendNANA
18:00 25.3 18.1 64 0.0 LegendMM LegendMM   98.61 31   LegendNANA
19:00 24.1 17.1 65 0.0 LegendMM LegendMM   98.70 29   LegendNANA
20:00 23.2 17.2 69 0.0 LegendMM LegendMM   98.72 29   LegendNANA
21:00 22.7 16.2 67 0.0 LegendMM LegendMM   98.82 27   LegendNANA
22:00 21.9 16.2 70 0.0 LegendMM LegendMM   98.87 27   LegendNANA
23:00 21.3 15.5 69 0.0 LegendMM LegendMM   98.93 26   LegendNANA

Notes on Data Quality.

Legend

  • E = Estimated
  • M = Missing
  • NA = Not Available*
  • [empty] = Indicates an unobserved value
Date modified: